Regional Weather Roundup
Issued by NWS Charleston, SC

Home | Current Version | Previous Version | Text Only | Print | Product List | Glossary On
Versions: 1 2 3 4 5 6 7 8 9 10 11 12 13 14 15 16 17 18 19 20 21 22 23 24 25 26 27 28 29 30 31 32 33 34 35 36 37 38 39 40 41 42 43 44 45 46 47 48 49 50
000
ASUS42 KCHS 031712
RWRCHS

REGIONAL WEATHER ROUNDUP
NATIONAL WEATHER SERVICE CHARLESTON SC
100 PM EDT MON AUG 03 2015

NOTE: "FAIR" INDICATES FEW OR NO CLOUDS BELOW 12,000 FEET WITH NO
SIGNIFICANT WEATHER AND/OR OBSTRUCTIONS TO VISIBILITY.

NOT ALL STATIONS ARE QUALITY CONTROLLED BY THE NATIONAL
WEATHER SERVICE. USE DATA WITH CAUTION...ESPECIALLY
DEWPOINT OBSERVATIONS.

SCZ027-030-031-034>040-042>050-031800-
...SOUTHEAST SOUTH CAROLINA...

CITY           SKY/WX    TMP DP  RH WIND       PRES   REMARKS
N CHARLESTON   PTSUNNY   88  70  55 S15       29.94S HX  93
WATERFRONT PRK   N/A     84  76  77 S9        29.92R HX  93
MOUNT PLEASANT FAIR      86  75  70 S12       29.95S HX  95
JOHNS ISLAND   PTSUNNY   88  77  70 S9G15     29.95R HX 100
PINOPOLIS      NOT AVBL
MONCKS CORNER  FAIR      88  73  62 S5        29.94F HX  96
SUMMERVILLE    PTSUNNY   88  73  62 S6        29.94S HX  96
BEAUFORT MCAS  CLOUDY    83  75  77 S6        29.92S HX  90
BEAUFORT ARPT  CLOUDY    82  75  78 S9        29.92S HAZE
HILTON HEAD IS PTSUNNY   84  73  70 S9G16     29.93F HX  91
WALTERBORO     CLOUDY    81  77  89 NW5       29.94S
ALLENDALE      CLOUDY    79  75  89 CALM      29.92F

...SOUTHERN MIDLANDS AND PEE DEE...

CITY           SKY/WX    TMP DP  RH WIND       PRES   REMARKS
GEORGETOWN     NOT AVBL
KINGSTREE      NOT AVBL
ORANGEBURG     CLOUDY    80  72  76 E5        29.95S
BARNWELL       FAIR      84  75  74 N3        29.94S HX  92
AIKEN          PTSUNNY   86  68  54 N3        29.97S
MANNING        HVY RAIN  77  72  83 CALM      29.96F
COLUMBIA       PTSUNNY   91  69  48 E7        29.92F HX  96
SUMTER         MOSUNNY   89  71  54 SE10      29.92F HX  95
FLORENCE       MOSUNNY   86  71  60 SW10      29.95F HX  91
MYRTLE BEACH   PTSUNNY   81  73  78 SW7       29.97F
N MYRTLE BEACH HVY RAIN  80  74  81 W7        29.96S

$$

GAZ063-065-086>088-099>101-113>116-118-119-134>141-150-031800-
...SOUTHEAST GEORGIA...

CITY           SKY/WX    TMP DP  RH WIND       PRES   REMARKS
SAVANNAH ARPT  CLOUDY    79  73  82 SE15      29.92S
HUNTER AAF     DRIZZLE   77  77  99 SE5       29.89F
FORT STEWART   CLOUDY    82  77  83 SE6       29.88S HX  91
STATESBORO     CLOUDY    85  78  80 SE9       29.91S HX  95
SYLVANIA       CLOUDY    79  78  94 SE7       29.92S
CLAXTON        NOT AVBL

...CSRA...CENTRAL AND FAR SOUTHEAST GEORGIA...

CITY           SKY/WX    TMP DP  RH WIND       PRES   REMARKS
THOMSON        MOSUNNY   88  75  65 CALM      29.97F HX  97
AUGUSTA-BUSH   PTSUNNY   86  72  62 CALM      29.91F HX  92
AUGUSTA-DANIEL PTSUNNY   86  71  60 CALM      29.94F HX  91
SWAINSBORO     CLOUDY    86  75  70 E3        29.92F HX  95
VIDALIA        CLOUDY    84  73  70 CALM      29.91F HX  91
EASTMAN        PTSUNNY   86  77  74 SE6       29.94F HX  97
HAZLEHURST     CLOUDY    85  76  73 CALM      29.90S HX  94
ALMA           CLOUDY    82  74  76 CALM      29.89F
WAYCROSS       CLOUDY    82  78  89 NE5       29.89F HX  92
JESUP          CLOUDY    81  79  94 SW3       29.90S FOG
BAXLEY         CLOUDY    81  77  89 CALM      29.90S
BRUNSWICK      CLOUDY    84  73  70 S10       29.89F HX  91
SAINT SIMONS   CLOUDY    82  74  76 S10G20    29.88F

$$

SCZ027-028-034-036>038-045-046-048>050-GAZ119-141-031800-
...LAKE AND SUPPLEMENTAL COASTAL OBSERVATIONS...

STATION/POSITION TIME  TEMP    WIND        PRES    WAVE   SWELL
                       AIR SEA DIR/SP/G            HT/PER HT/PER/DIR
                 (UTC) (F)     (DEG/KT/KT) (MB)    (FT/S) (FT/S/D)
UPR LAKE MARION  NOT AVBL
WINYAH BAY       NOT AVBL
LAKE MURRAY      1600   85      CALM  /  1 1013.2F
ACE BASIN NERRS  NOT AVBL
FORT PULASKI     1600   78 85  250/  2/  4 1013.7F
SAPELO ISLAND    1600   84     160/ 14     1013.0S

$$

ANZ835-935-AMZ111-154-330-350-352-354-370-450-454-472-031800-
...C-MAN AND BUOY OBSERVATIONS...

STATION/POSITION TIME  TEMP    WIND        PRES    WAVE   SWELL
                       AIR SEA DIR/SP/G            HT/PER HT/PER/DIR
                 (UTC) (F)     (DEG/KT/KT) (MB)    (FT/S) (FT/S/D)
BUOY 41004       1650   84 83  200/ 10/ 12 1013.9R   4/ 7   3/ 7
BUOY 41008       1650   82 83  170/ 17/ 23 1012.3F   5/ 6   2/ 30/12
FOLLY BEACH CMAN 1600   82     170/  7/  8 1014.1F
CAPERS NEARSHORE 1608   83     190/  8/ 12 1014.2S
FRIPP NEARSHORE  1600   84     190/ 16/ 17 1013.1F


STATION/POSITION TIME  TEMP    WIND        PRES    WAVE   SWELL
                       AIR SEA DIR/SP/G            HT/PER HT/PER/DIR
                 (UTC) (F)     (DEG/KT/KT) (MB)    (FT/S) (FT/S/D)
5E ST. MARYS GA  1621      82                N/A     5/ 6   2/100/12
FRYING PAN BUOY  1650   81 82  200/ 10/ 12 1015.5F   4/ 7   3/190/ 7
BUOY 41025       1650   73 84  250/  6/ 10 1016.6R   3/ 6   3/190/ 6
CAPE LOOKOUT NC  1600   74     270/  9/ 12 1015.8R
BUOY 41002       1650   83 81  200/ 14/ 17 1017.6R   5/ 6   2/ 90/11
BUOY 41010       1620   83 84  190/ 19/ 21 1015.9R
ST AUGUSTINE FL  1700   76 78  210/ 11/ 14 1013.3S


$$


USA.gov is the U.S. government's official web portal to all federal, state and local government web resources and services.